Tracking 33199 objects as of 16-Feb-2026
HD Live streaming from Space Station
objects crossing your sky now

STARLINK-11588

Track STARLINK-11588 now!
10-day predictions
STARLINK-11588 is classified as:


NORAD ID: 63319
Int'l Code: 2025-057N
Perigee: 362.8 km
Apogee: 364.5 km
Inclination: 43.0 °
Period: 91.7 minutes
Semi major axis: 6734 km
RCS: Unknown
Launch date: March 18, 2025
Source: United States (US)
Launch site: AIR FORCE EASTERN TEST RANGE (AFETR)
Your satellite tracking list
Your tracking list is empty




NASA's NSSDC Master Catalog

Two Line Element Set (TLE):
1 63319U 25057N   26047.50002314  .00031759  00000-0  25010-3 0  9991
2 63319  43.0003  32.1507 0001281 287.0776 164.2300 15.70835409  6027
Source of the keplerian elements: AFSPC